Time,TemperatureF,DewpointF,PressureIn,WindDirection,WindDirectionDegrees,WindSpeedMPH,WindSpeedGustMPH,Humidity,HourlyPrecipIn,Conditions,Clouds,dailyrainin,SolarRadiationWatts/m^2,SoftwareType,DateUTC
2013-08-03 00:02:00,56.0,55.0,-100.00,NE,35,1.0,5.0,96,0.00,,,0.00,0.000000,,2013-08-03 04:02:00,
2013-08-03 00:12:00,56.0,55.0,-100.00,NE,35,1.0,5.0,96,0.00,,,0.00,0.000000,,2013-08-03 04:12:00,
2013-08-03 00:43:00,55.0,54.0,-100.00,SSE,147,1.0,3.0,98,0.00,,,0.00,0.000000,,2013-08-03 04:43:00,
2013-08-03 00:53:00,55.0,54.0,-100.00,SSE,147,1.0,3.0,98,0.00,,,0.00,0.000000,,2013-08-03 04:53:00,
2013-08-03 01:02:00,55.0,54.0,-100.00,SSE,147,1.0,3.0,98,0.00,,,0.00,0.000000,,2013-08-03 05:02:00,
2013-08-03 01:12:00,55.0,54.0,-100.00,SSE,147,1.0,3.0,98,0.00,,,0.00,0.000000,,2013-08-03 05:12:00,
2013-08-03 01:42:00,54.0,53.0,-100.00,SE,142,2.0,5.0,98,0.00,,,0.00,0.000000,,2013-08-03 05:42:00,
2013-08-03 01:53:00,54.0,53.0,-100.00,SE,142,2.0,5.0,98,0.00,,,0.00,0.000000,,2013-08-03 05:53:00,
2013-08-03 02:02:00,54.0,53.0,-100.00,SE,142,2.0,5.0,98,0.00,,,0.00,0.000000,,2013-08-03 06:02:00,
2013-08-03 02:12:00,54.0,53.0,-100.00,SE,142,2.0,5.0,98,0.00,,,0.00,0.000000,,2013-08-03 06:12:00,
2013-08-03 02:42:00,54.0,53.0,-100.00,SSE,162,1.0,4.0,98,0.00,,,0.00,0.000000,,2013-08-03 06:42:00,
2013-08-03 02:52:00,54.0,53.0,-100.00,SSE,162,1.0,4.0,98,0.00,,,0.00,0.000000,,2013-08-03 06:52:00,
2013-08-03 03:02:00,54.0,53.0,-100.00,SSE,162,1.0,4.0,98,0.00,,,0.00,0.000000,,2013-08-03 07:02:00,
2013-08-03 03:12:00,54.0,53.0,-100.00,SSE,162,1.0,4.0,98,0.00,,,0.00,0.000000,,2013-08-03 07:12:00,
2013-08-03 03:43:00,54.0,53.0,-100.00,WSW,238,1.0,5.0,98,0.00,,,0.00,0.000000,,2013-08-03 07:43:00,
2013-08-03 03:53:00,54.0,53.0,-100.00,WSW,238,1.0,5.0,98,0.00,,,0.00,0.000000,,2013-08-03 07:53:00,
2013-08-03 04:02:00,54.0,53.0,-100.00,WSW,238,1.0,5.0,98,0.00,,,0.00,0.000000,,2013-08-03 08:02:00,
2013-08-03 04:12:00,54.0,53.0,-100.00,WSW,238,1.0,5.0,98,0.00,,,0.00,0.000000,,2013-08-03 08:12:00,
2013-08-03 04:43:00,58.0,57.0,-100.00,SW,216,1.0,4.0,98,0.00,,,0.00,0.000000,,2013-08-03 08:43:00,
2013-08-03 04:52:00,58.0,57.0,-100.00,SW,216,1.0,4.0,98,0.00,,,0.00,0.000000,,2013-08-03 08:52:00,
2013-08-03 05:02:00,58.0,57.0,-100.00,SW,216,1.0,4.0,98,0.00,,,0.00,0.000000,,2013-08-03 09:02:00,
2013-08-03 05:12:00,58.0,57.0,-100.00,SW,216,1.0,4.0,98,0.00,,,0.00,0.000000,,2013-08-03 09:12:00,
2013-08-03 05:32:00,58.0,58.0,-100.00,West,270,2.0,5.0,99,0.02,,,-99.99,0.000000,,2013-08-03 09:32:00,
2013-08-03 05:43:00,58.0,58.0,-100.00,West,270,2.0,5.0,99,0.02,,,-99.99,0.000000,,2013-08-03 09:43:00,
2013-08-03 05:53:00,58.0,58.0,-100.00,West,270,2.0,5.0,99,0.02,,,-99.99,0.000000,,2013-08-03 09:53:00,
2013-08-03 06:02:00,58.0,58.0,-100.00,West,270,2.0,5.0,99,0.02,,,-99.99,0.000000,,2013-08-03 10:02:00,
2013-08-03 06:12:00,58.0,58.0,-100.00,West,270,2.0,5.0,99,0.02,,,-99.99,0.000000,,2013-08-03 10:12:00,
2013-08-03 06:33:00,59.0,58.0,-100.00,NW,317,0.0,3.0,98,0.01,,,0.03,1.000000,,2013-08-03 10:33:00,
2013-08-03 06:43:00,59.0,58.0,-100.00,NW,317,0.0,3.0,98,0.01,,,0.03,1.000000,,2013-08-03 10:43:00,
2013-08-03 06:53:00,59.0,58.0,-100.00,NW,317,0.0,3.0,98,0.01,,,0.03,1.000000,,2013-08-03 10:53:00,
2013-08-03 07:02:00,59.0,58.0,-100.00,NW,317,0.0,3.0,98,0.01,,,0.03,1.000000,,2013-08-03 11:02:00,
2013-08-03 07:12:00,59.0,58.0,-100.00,NW,317,0.0,3.0,98,0.01,,,0.03,1.000000,,2013-08-03 11:12:00,
2013-08-03 07:43:00,59.0,58.0,-100.00,SSE,154,0.0,7.0,98,0.04,,,0.07,11.000000,,2013-08-03 11:43:00,
2013-08-03 07:53:00,59.0,58.0,-100.00,SSE,154,0.0,7.0,98,0.04,,,0.07,11.000000,,2013-08-03 11:53:00,
2013-08-03 08:02:00,59.0,58.0,-100.00,SSE,154,0.0,7.0,98,0.04,,,0.07,11.000000,,2013-08-03 12:02:00,
2013-08-03 08:12:00,59.0,58.0,-100.00,SSE,154,0.0,7.0,98,0.04,,,0.07,11.000000,,2013-08-03 12:12:00,
2013-08-03 08:43:00,61.0,60.0,-100.00,NW,320,1.0,4.0,95,0.00,,,0.07,107.000000,,2013-08-03 12:43:00,
2013-08-03 08:53:00,61.0,60.0,-100.00,NW,320,1.0,4.0,95,0.00,,,0.07,107.000000,,2013-08-03 12:53:00,
2013-08-03 09:02:00,61.0,60.0,-100.00,NW,320,1.0,4.0,95,0.00,,,0.07,107.000000,,2013-08-03 13:02:00,
2013-08-03 09:12:00,61.0,60.0,-100.00,NW,320,1.0,4.0,95,0.00,,,0.07,107.000000,,2013-08-03 13:12:00,
2013-08-03 09:43:00,64.0,60.0,-100.00,SW,215,2.0,5.0,87,0.00,,,0.07,222.000000,,2013-08-03 13:43:00,
2013-08-03 09:52:00,64.0,60.0,-100.00,SW,215,2.0,5.0,87,0.00,,,0.07,222.000000,,2013-08-03 13:52:00,
2013-08-03 10:02:00,64.0,60.0,-100.00,SW,215,2.0,5.0,87,0.00,,,0.07,222.000000,,2013-08-03 14:02:00,
2013-08-03 10:13:00,64.0,60.0,-100.00,SW,215,2.0,5.0,87,0.00,,,0.07,222.000000,,2013-08-03 14:13:00,
2013-08-03 10:42:00,65.0,61.0,-100.00,ESE,116,1.0,2.0,87,0.00,,,0.07,271.000000,,2013-08-03 14:42:00,
2013-08-03 10:52:00,65.0,61.0,-100.00,ESE,116,1.0,2.0,87,0.00,,,0.07,271.000000,,2013-08-03 14:52:00,
2013-08-03 11:02:00,65.0,61.0,-100.00,ESE,116,1.0,2.0,87,0.00,,,0.07,271.000000,,2013-08-03 15:02:00,
2013-08-03 11:12:00,65.0,61.0,-100.00,ESE,116,1.0,2.0,87,0.00,,,0.07,271.000000,,2013-08-03 15:12:00,
2013-08-03 11:43:00,73.0,61.0,-100.00,SW,224,7.0,12.0,66,0.01,,,0.08,654.000000,,2013-08-03 15:43:00,
2013-08-03 11:53:00,73.0,61.0,-100.00,SW,224,7.0,12.0,66,0.01,,,0.08,654.000000,,2013-08-03 15:53:00,
2013-08-03 12:02:00,73.0,61.0,-100.00,SW,224,7.0,12.0,66,0.01,,,0.08,654.000000,,2013-08-03 16:02:00,
2013-08-03 12:13:00,73.0,61.0,-100.00,SW,224,7.0,12.0,66,0.01,,,0.08,654.000000,,2013-08-03 16:13:00,
2013-08-03 12:43:00,76.0,60.0,-100.00,WSW,243,7.0,13.0,57,0.00,,,0.08,727.000000,,2013-08-03 16:43:00,
2013-08-03 12:53:00,76.0,60.0,-100.00,WSW,243,7.0,13.0,57,0.00,,,0.08,727.000000,,2013-08-03 16:53:00,
2013-08-03 13:03:00,76.0,60.0,-100.00,WSW,243,7.0,13.0,57,0.00,,,0.08,727.000000,,2013-08-03 17:03:00,
2013-08-03 13:12:00,76.0,60.0,-100.00,WSW,243,7.0,13.0,57,0.00,,,0.08,727.000000,,2013-08-03 17:12:00,
2013-08-03 13:32:00,72.0,55.0,-100.00,WSW,246,8.0,16.0,56,0.00,,,0.08,632.000000,,2013-08-03 17:32:00,
2013-08-03 13:43:00,72.0,55.0,-100.00,WSW,246,8.0,16.0,56,0.00,,,0.08,632.000000,,2013-08-03 17:43:00,
2013-08-03 13:52:00,72.0,55.0,-100.00,WSW,246,8.0,16.0,56,0.00,,,0.08,632.000000,,2013-08-03 17:52:00,
2013-08-03 14:02:00,72.0,55.0,-100.00,WSW,246,8.0,16.0,56,0.00,,,0.08,632.000000,,2013-08-03 18:02:00,
2013-08-03 14:12:00,72.0,55.0,-100.00,WSW,246,8.0,16.0,56,0.00,,,0.08,632.000000,,2013-08-03 18:12:00,
2013-08-03 14:43:00,74.0,54.0,-100.00,SW,216,5.0,16.0,49,0.00,,,0.08,646.000000,,2013-08-03 18:43:00,
2013-08-03 14:53:00,74.0,54.0,-100.00,SW,216,5.0,16.0,49,0.00,,,0.08,646.000000,,2013-08-03 18:53:00,
2013-08-03 15:03:00,74.0,54.0,-100.00,SW,216,5.0,16.0,49,0.00,,,0.08,646.000000,,2013-08-03 19:03:00,
2013-08-03 15:12:00,74.0,54.0,-100.00,SW,216,5.0,16.0,49,0.00,,,0.08,646.000000,,2013-08-03 19:12:00,
2013-08-03 15:43:00,74.0,55.0,-100.00,West,264,4.0,12.0,51,0.00,,,0.08,334.000000,,2013-08-03 19:43:00,
2013-08-03 15:53:00,74.0,55.0,-100.00,West,264,4.0,12.0,51,0.00,,,0.08,334.000000,,2013-08-03 19:53:00,
2013-08-03 16:02:00,74.0,55.0,-100.00,West,264,4.0,12.0,51,0.00,,,0.08,334.000000,,2013-08-03 20:02:00,
2013-08-03 16:12:00,74.0,55.0,-100.00,West,264,4.0,12.0,51,0.00,,,0.08,334.000000,,2013-08-03 20:12:00,
2013-08-03 16:42:00,76.0,55.0,-100.00,West,281,5.0,12.0,49,0.00,,,0.08,404.000000,,2013-08-03 20:42:00,
2013-08-03 16:52:00,76.0,55.0,-100.00,West,281,5.0,12.0,49,0.00,,,0.08,404.000000,,2013-08-03 20:52:00,
2013-08-03 17:02:00,76.0,55.0,-100.00,West,281,5.0,12.0,49,0.00,,,0.08,404.000000,,2013-08-03 21:02:00,
2013-08-03 17:12:00,76.0,55.0,-100.00,West,281,5.0,12.0,49,0.00,,,0.08,404.000000,,2013-08-03 21:12:00,
2013-08-03 17:42:00,78.0,55.0,-100.00,WSW,239,3.0,12.0,45,0.00,,,0.08,455.000000,,2013-08-03 21:42:00,
2013-08-03 17:52:00,78.0,55.0,-100.00,WSW,239,3.0,12.0,45,0.00,,,0.08,455.000000,,2013-08-03 21:52:00,
2013-08-03 18:02:00,78.0,55.0,-100.00,WSW,239,3.0,12.0,45,0.00,,,0.08,455.000000,,2013-08-03 22:02:00,
2013-08-03 18:12:00,78.0,55.0,-100.00,WSW,239,3.0,12.0,45,0.00,,,0.08,455.000000,,2013-08-03 22:12:00,
2013-08-03 18:43:00,77.0,54.0,-100.00,WSW,254,4.0,12.0,45,0.00,,,0.08,408.000000,,2013-08-03 22:43:00,
2013-08-03 18:52:00,77.0,54.0,-100.00,WSW,254,4.0,12.0,45,0.00,,,0.08,408.000000,,2013-08-03 22:52:00,
2013-08-03 19:02:00,77.0,54.0,-100.00,WSW,254,4.0,12.0,45,0.00,,,0.08,408.000000,,2013-08-03 23:02:00,
2013-08-03 19:12:00,77.0,54.0,-100.00,WSW,254,4.0,12.0,45,0.00,,,0.08,408.000000,,2013-08-03 23:12:00,
2013-08-03 19:43:00,72.0,52.0,-100.00,NW,309,2.0,12.0,50,0.00,,,0.08,158.000000,,2013-08-03 23:43:00,
2013-08-03 19:52:00,72.0,52.0,-100.00,NW,309,2.0,12.0,50,0.00,,,0.08,158.000000,,2013-08-03 23:52:00,
2013-08-03 20:02:00,72.0,52.0,-100.00,NW,309,2.0,12.0,50,0.00,,,0.08,158.000000,,2013-08-04 00:02:00,
2013-08-03 20:12:00,72.0,52.0,-100.00,NW,309,2.0,12.0,50,0.00,,,0.08,158.000000,,2013-08-04 00:12:00,
2013-08-03 20:42:00,62.0,57.0,-100.00,SSW,202,1.0,5.0,83,0.00,,,0.08,18.000000,,2013-08-04 00:42:00,
2013-08-03 20:53:00,62.0,57.0,-100.00,SSW,202,1.0,5.0,83,0.00,,,0.08,18.000000,,2013-08-04 00:53:00,
2013-08-03 21:02:00,62.0,57.0,-100.00,SSW,202,1.0,5.0,83,0.00,,,0.08,18.000000,,2013-08-04 01:02:00,
2013-08-03 21:12:00,62.0,57.0,-100.00,SSW,202,1.0,5.0,83,0.00,,,0.08,18.000000,,2013-08-04 01:12:00,
2013-08-03 22:42:00,57.0,56.0,-100.00,SSW,212,0.0,0.0,97,-99.99,,,0.08,0.000000,,2013-08-04 02:42:00,
2013-08-03 22:52:00,57.0,56.0,-100.00,SSW,212,0.0,0.0,97,-99.99,,,0.08,0.000000,,2013-08-04 02:52:00,
2013-08-03 23:02:00,57.0,56.0,-100.00,SSW,212,0.0,0.0,97,-99.99,,,0.08,0.000000,,2013-08-04 03:02:00,
2013-08-03 23:12:00,57.0,56.0,-100.00,SSW,212,0.0,0.0,97,-99.99,,,0.08,0.000000,,2013-08-04 03:12:00,
2013-08-03 23:42:00,56.0,55.0,-100.00,North,350,1.0,4.0,97,0.00,,,0.08,0.000000,,2013-08-04 03:42:00,
2013-08-03 23:52:00,56.0,55.0,-100.00,North,350,1.0,4.0,97,0.00,,,0.08,0.000000,,2013-08-04 03:52:00,